N903LE KSQL-KTEX

Flight info

Callsign N903LE
Flight time N/A
Altitude 19000
Route ORANG SHIMR JSICA Q130 ROCCY IBSKI ETL
Aircraft C414/L-SBDFGRY/S

Departure

Time 2026-04-18 11:09
Airport San Carlos Airport (KSQL)

Arrival

Time N/A
Airport Telluride Regional Airport (KTEX)
Time Latitude Longitude Altitude Speed Heading
2026-04-18 11:08 37.52995 -122.19430 2423 ft 124 kts 23°
2026-04-18 11:09 37.53691 -122.18807 2777 ft 124 kts 52°
2026-04-18 11:09 37.54180 -122.17914 3115 ft 124 kts 56°
2026-04-18 11:09 37.54655 -122.17007 3460 ft 124 kts 58°
2026-04-18 11:09 37.55116 -122.16088 3801 ft 124 kts 58°
2026-04-18 11:10 37.55571 -122.15162 4149 ft 124 kts 59°
2026-04-18 11:10 37.56027 -122.14232 4485 ft 125 kts 59°
2026-04-18 11:10 37.56487 -122.13290 4833 ft 126 kts 59°
2026-04-18 11:10 37.56947 -122.12348 5159 ft 127 kts 58°
2026-04-18 11:11 37.57411 -122.11398 5479 ft 128 kts 58°
2026-04-18 11:11 37.57881 -122.10436 5797 ft 130 kts 57°
2026-04-18 11:11 37.58195 -122.09791 6014 ft 131 kts 57°
2026-04-18 11:11 37.58672 -122.08813 6343 ft 132 kts 57°
2026-04-18 11:12 37.59154 -122.07825 6662 ft 133 kts 57°
2026-04-18 11:12 37.59638 -122.06832 6978 ft 133 kts 57°
2026-04-18 11:12 37.60264 -122.05546 7371 ft 134 kts 57°
2026-04-18 11:12 37.60755 -122.04539 7686 ft 135 kts 58°
2026-04-18 11:13 37.61247 -122.03527 8002 ft 136 kts 58°
2026-04-18 11:13 37.61744 -122.02508 8320 ft 137 kts 58°
2026-04-18 11:13 37.62241 -122.01485 8639 ft 137 kts 58°
2026-04-18 11:13 37.62742 -122.00457 8961 ft 138 kts 58°
2026-04-18 11:14 37.63244 -121.99422 9281 ft 139 kts 58°
2026-04-18 11:14 37.63750 -121.98383 9609 ft 139 kts 58°
2026-04-18 11:14 37.64258 -121.97338 9929 ft 140 kts 58°
2026-04-18 11:14 37.64768 -121.96287 10227 ft 141 kts 58°
2026-04-18 11:15 37.65282 -121.95229 10516 ft 142 kts 58°
2026-04-18 11:15 37.65798 -121.94166 10810 ft 142 kts 57°
2026-04-18 11:15 37.66317 -121.93098 11110 ft 143 kts 57°
2026-04-18 11:15 37.66838 -121.92023 11397 ft 144 kts 58°
2026-04-18 11:16 37.67362 -121.90943 11696 ft 145 kts 57°
2026-04-18 11:16 37.67889 -121.89856 11993 ft 145 kts 57°
2026-04-18 11:16 37.68418 -121.88765 12292 ft 146 kts 57°
2026-04-18 11:16 37.68951 -121.87665 12592 ft 147 kts 57°
2026-04-18 11:17 37.69486 -121.86561 12897 ft 148 kts 57°
2026-04-18 11:17 37.70024 -121.85450 13204 ft 149 kts 57°
2026-04-18 11:17 37.70565 -121.84333 13506 ft 150 kts 57°
2026-04-18 11:17 37.71108 -121.83209 13812 ft 150 kts 56°
2026-04-18 11:18 37.71655 -121.82079 14089 ft 151 kts 56°
2026-04-18 11:18 37.72020 -121.81325 14271 ft 152 kts 56°
2026-04-18 11:18 37.72575 -121.80178 14528 ft 154 kts 56°
2026-04-18 11:18 37.73136 -121.79016 14785 ft 156 kts 56°
2026-04-18 11:19 37.73705 -121.77838 15049 ft 158 kts 56°
2026-04-18 11:19 37.74280 -121.76648 15318 ft 159 kts 56°
2026-04-18 11:19 37.75048 -121.75057 15673 ft 161 kts 56°
2026-04-18 11:19 37.75444 -121.74237 15856 ft 162 kts 56°
2026-04-18 11:20 37.76034 -121.73014 16126 ft 164 kts 56°
2026-04-18 11:20 37.76630 -121.71779 16405 ft 165 kts 55°
2026-04-18 11:20 37.77230 -121.70532 16681 ft 167 kts 55°
2026-04-18 11:20 37.77837 -121.69274 16954 ft 168 kts 55°
2026-04-18 11:21 37.78450 -121.68002 17228 ft 170 kts 55°
2026-04-18 11:21 37.79067 -121.66722 17508 ft 171 kts 55°
2026-04-18 11:21 37.79688 -121.65428 17787 ft 173 kts 55°
2026-04-18 11:21 37.80316 -121.64123 18058 ft 175 kts 55°
2026-04-18 11:22 37.80950 -121.62806 18322 ft 176 kts 55°
2026-04-18 11:22 37.81588 -121.61478 18573 ft 177 kts 54°
2026-04-18 11:22 37.82229 -121.60143 18820 ft 178 kts 55°
2026-04-18 11:22 37.82875 -121.58800 19058 ft 180 kts 55°
2026-04-18 11:23 37.83546 -121.57405 19079 ft 196 kts 55°
2026-04-18 11:23 37.84286 -121.55861 19086 ft 209 kts 56°
2026-04-18 11:23 37.85058 -121.54247 19086 ft 219 kts 56°
2026-04-18 11:23 37.85863 -121.52567 19084 ft 227 kts 56°
2026-04-18 11:24 37.86690 -121.50840 19082 ft 232 kts 56°
2026-04-18 11:24 37.87528 -121.49091 19136 ft 236 kts 59°
2026-04-18 11:24 37.88362 -121.47344 19077 ft 236 kts 53°
2026-04-18 11:24 37.89215 -121.45560 19086 ft 235 kts 52°
2026-04-18 11:25 37.90060 -121.43795 19095 ft 234 kts 52°
2026-04-18 11:25 37.90903 -121.42032 19098 ft 234 kts 52°
2026-04-18 11:25 37.91744 -121.40271 19097 ft 234 kts 52°
2026-04-18 11:25 37.92584 -121.38511 19097 ft 234 kts 52°
2026-04-18 11:26 37.93425 -121.36749 19097 ft 233 kts 52°
2026-04-18 11:26 37.94263 -121.34991 19096 ft 233 kts 52°
2026-04-18 11:26 37.95103 -121.33229 19097 ft 233 kts 52°
2026-04-18 11:26 37.95941 -121.31470 19097 ft 233 kts 52°
2026-04-18 11:27 37.96780 -121.29708 19097 ft 233 kts 52°
2026-04-18 11:27 37.97618 -121.27947 19074 ft 234 kts 52°
2026-04-18 11:27 37.98399 -121.26136 19069 ft 238 kts 63°
2026-04-18 11:27 37.98851 -121.24102 19091 ft 240 kts 69°
2026-04-18 11:28 37.99296 -121.22058 19080 ft 240 kts 68°
2026-04-18 11:28 37.99748 -121.20017 19067 ft 241 kts 68°
2026-04-18 11:28 38.00197 -121.17973 19053 ft 241 kts 69°
2026-04-18 11:28 38.00643 -121.15926 19051 ft 241 kts 69°
2026-04-18 11:29 38.01090 -121.13876 19058 ft 241 kts 69°
2026-04-18 11:29 38.01537 -121.11828 19055 ft 241 kts 69°
2026-04-18 11:29 38.01984 -121.09778 19058 ft 241 kts 69°
2026-04-18 11:29 38.02431 -121.07728 19059 ft 241 kts 69°
2026-04-18 11:30 38.02877 -121.05676 19045 ft 241 kts 69°
2026-04-18 11:30 38.03323 -121.03625 19050 ft 241 kts 69°
2026-04-18 11:30 38.03768 -121.01571 19048 ft 242 kts 69°
2026-04-18 11:30 38.04215 -120.99515 19051 ft 242 kts 69°
2026-04-18 11:31 38.04660 -120.97460 19051 ft 242 kts 69°
2026-04-18 11:31 38.05106 -120.95403 19053 ft 242 kts 68°
2026-04-18 11:31 38.05551 -120.93344 19043 ft 242 kts 68°
2026-04-18 11:31 38.05995 -120.91287 19051 ft 242 kts 68°
2026-04-18 11:32 38.06440 -120.89232 19051 ft 241 kts 68°
2026-04-18 11:32 38.06883 -120.87176 19052 ft 242 kts 68°
2026-04-18 11:32 38.07327 -120.85117 19050 ft 242 kts 68°
2026-04-18 11:32 38.07769 -120.83062 19044 ft 241 kts 68°
2026-04-18 11:33 38.08212 -120.81007 19050 ft 241 kts 68°
2026-04-18 11:33 38.08654 -120.78952 19053 ft 241 kts 68°
2026-04-18 11:33 38.09095 -120.76896 19050 ft 241 kts 68°
2026-04-18 11:33 38.09536 -120.74840 19054 ft 242 kts 68°
2026-04-18 11:34 38.09978 -120.72779 19049 ft 242 kts 69°
2026-04-18 11:34 38.10417 -120.70725 19043 ft 241 kts 69°
2026-04-18 11:34 38.10858 -120.68668 19048 ft 241 kts 68°
2026-04-18 11:34 38.11290 -120.66643 19048 ft 241 kts 69°
2026-04-18 11:35 38.11729 -120.64591 19047 ft 241 kts 69°
2026-04-18 11:35 38.12167 -120.62538 19044 ft 241 kts 69°
2026-04-18 11:35 38.12605 -120.60483 19040 ft 241 kts 69°
2026-04-18 11:35 38.13042 -120.58426 19043 ft 241 kts 69°
2026-04-18 11:36 38.13480 -120.56370 19044 ft 241 kts 69°
2026-04-18 11:36 38.13918 -120.54314 19043 ft 242 kts 69°
2026-04-18 11:36 38.14356 -120.52249 19045 ft 242 kts 69°
2026-04-18 11:36 38.14794 -120.50183 19039 ft 243 kts 69°
2026-04-18 11:37 38.15232 -120.48113 19046 ft 243 kts 69°
2026-04-18 11:37 38.15672 -120.46042 19038 ft 243 kts 69°
2026-04-18 11:37 38.16108 -120.43974 19043 ft 242 kts 69°
2026-04-18 11:37 38.16545 -120.41906 19047 ft 243 kts 69°
2026-04-18 11:38 38.16983 -120.39836 19052 ft 243 kts 68°
2026-04-18 11:38 38.17420 -120.37761 19047 ft 243 kts 68°
2026-04-18 11:38 38.17856 -120.35698 19047 ft 241 kts 68°
2026-04-18 11:38 38.18287 -120.33645 19045 ft 240 kts 68°
2026-04-18 11:39 38.18715 -120.31600 19049 ft 239 kts 68°
2026-04-18 11:39 38.19147 -120.29555 19059 ft 240 kts 68°
2026-04-18 11:39 38.19579 -120.27509 19065 ft 240 kts 68°
2026-04-18 11:39 38.20008 -120.25455 19063 ft 240 kts 68°
2026-04-18 11:40 38.20438 -120.23405 19057 ft 240 kts 68°
2026-04-18 11:40 38.20866 -120.21357 19051 ft 239 kts 68°
2026-04-18 11:40 38.21293 -120.19314 19050 ft 239 kts 68°
2026-04-18 11:40 38.21720 -120.17274 19050 ft 239 kts 68°
2026-04-18 11:41 38.22146 -120.15232 19058 ft 239 kts 68°
2026-04-18 11:41 38.22571 -120.13192 19061 ft 239 kts 68°
2026-04-18 11:41 38.22997 -120.11154 19076 ft 239 kts 68°
2026-04-18 11:41 38.23385 -120.09090 19069 ft 242 kts 73°
2026-04-18 11:42 38.23621 -120.06964 19068 ft 242 kts 75°
2026-04-18 11:42 38.23855 -120.04844 19083 ft 242 kts 75°
2026-04-18 11:42 38.24099 -120.02726 19084 ft 243 kts 75°
2026-04-18 11:42 38.24345 -120.00598 19085 ft 243 kts 75°
2026-04-18 11:43 38.24585 -119.98482 19080 ft 240 kts 75°
2026-04-18 11:43 38.24822 -119.96387 19082 ft 238 kts 75°
2026-04-18 11:43 38.25058 -119.94308 19077 ft 237 kts 75°
2026-04-18 11:43 38.25293 -119.92234 19093 ft 236 kts 75°
2026-04-18 11:44 38.25525 -119.90175 19090 ft 235 kts 74°
2026-04-18 11:44 38.25757 -119.88125 19080 ft 234 kts 74°
2026-04-18 11:44 38.25988 -119.86080 19093 ft 234 kts 75°
2026-04-18 11:44 38.26217 -119.84030 19076 ft 234 kts 74°
2026-04-18 11:45 38.26451 -119.81974 19108 ft 235 kts 75°
2026-04-18 11:45 38.26681 -119.79911 19107 ft 235 kts 75°
2026-04-18 11:45 38.26912 -119.77849 19111 ft 236 kts 75°
2026-04-18 11:45 38.27139 -119.75810 19107 ft 236 kts 75°
2026-04-18 11:46 38.27370 -119.73748 19102 ft 235 kts 75°
2026-04-18 11:46 38.27600 -119.71685 19113 ft 237 kts 75°
2026-04-18 11:46 38.27830 -119.69604 19141 ft 238 kts 75°
2026-04-18 11:46 38.28062 -119.67521 19139 ft 237 kts 75°
2026-04-18 11:47 38.28293 -119.65445 19137 ft 236 kts 75°
2026-04-18 11:47 38.28521 -119.63380 19136 ft 235 kts 75°
2026-04-18 11:47 38.28747 -119.61322 19138 ft 235 kts 75°
2026-04-18 11:47 38.28976 -119.59259 19180 ft 236 kts 75°
2026-04-18 11:48 38.29205 -119.57177 19179 ft 238 kts 75°
2026-04-18 11:48 38.29432 -119.55098 19177 ft 237 kts 75°
2026-04-18 11:48 38.29662 -119.53025 19180 ft 237 kts 75°
2026-04-18 11:48 38.29892 -119.50935 19180 ft 240 kts 75°
2026-04-18 11:49 38.30121 -119.48833 19171 ft 239 kts 75°
2026-04-18 11:49 38.30346 -119.46755 19211 ft 236 kts 75°
2026-04-18 11:49 38.30571 -119.44684 19212 ft 236 kts 75°
2026-04-18 11:49 38.30799 -119.42608 19212 ft 238 kts 75°
2026-04-18 11:50 38.31026 -119.40519 19210 ft 238 kts 75°
2026-04-18 11:50 38.31252 -119.38436 19208 ft 237 kts 75°
2026-04-18 11:50 38.31477 -119.36359 19207 ft 236 kts 75°
2026-04-18 11:50 38.31699 -119.34292 19206 ft 235 kts 75°
2026-04-18 11:51 38.31921 -119.32231 19210 ft 235 kts 75°
2026-04-18 11:51 38.32145 -119.30169 19206 ft 235 kts 75°
2026-04-18 11:51 38.32368 -119.28101 19212 ft 237 kts 75°
2026-04-18 11:51 38.32592 -119.26019 19208 ft 237 kts 75°
2026-04-18 11:52 38.32812 -119.23951 19245 ft 235 kts 75°
2026-04-18 11:52 38.33031 -119.21893 19240 ft 234 kts 74°
2026-04-18 11:52 38.33252 -119.19833 19243 ft 235 kts 75°
2026-04-18 11:52 38.33474 -119.17763 19242 ft 236 kts 75°
2026-04-18 11:53 38.33696 -119.15687 19243 ft 237 kts 75°
2026-04-18 11:53 38.33915 -119.13606 19244 ft 236 kts 75°
2026-04-18 11:53 38.34135 -119.11542 19251 ft 235 kts 75°
2026-04-18 11:53 38.34353 -119.09476 19245 ft 235 kts 75°
2026-04-18 11:54 38.34571 -119.07407 19249 ft 236 kts 75°
2026-04-18 11:54 38.34792 -119.05329 19250 ft 237 kts 75°
2026-04-18 11:54 38.35010 -119.03252 19252 ft 237 kts 75°
2026-04-18 11:54 38.35229 -119.01174 19245 ft 237 kts 75°
2026-04-18 11:55 38.35447 -118.99096 19250 ft 237 kts 75°
2026-04-18 11:55 38.35665 -118.97013 19256 ft 237 kts 75°
2026-04-18 11:55 38.35884 -118.94931 19259 ft 238 kts 75°
2026-04-18 11:55 38.36102 -118.92841 19260 ft 238 kts 75°
2026-04-18 11:56 38.36318 -118.90758 19266 ft 237 kts 75°
2026-04-18 11:56 38.36535 -118.88678 19255 ft 237 kts 75°
2026-04-18 11:56 38.36752 -118.86594 19266 ft 237 kts 75°
2026-04-18 11:56 38.36968 -118.84514 19266 ft 237 kts 75°
2026-04-18 11:57 38.37183 -118.82436 19272 ft 237 kts 75°
2026-04-18 11:57 38.37397 -118.80358 19274 ft 236 kts 75°
2026-04-18 11:57 38.37612 -118.78281 19275 ft 236 kts 75°
2026-04-18 11:57 38.37825 -118.76204 19273 ft 236 kts 75°
2026-04-18 11:58 38.38038 -118.74127 19277 ft 237 kts 75°
2026-04-18 11:58 38.38251 -118.72054 19280 ft 235 kts 75°
2026-04-18 11:58 38.38466 -118.69981 19282 ft 237 kts 75°
2026-04-18 11:58 38.38679 -118.67893 19289 ft 238 kts 75°
2026-04-18 11:59 38.38892 -118.65796 19287 ft 238 kts 75°
2026-04-18 11:59 38.39100 -118.63737 19288 ft 237 kts 75°
2026-04-18 11:59 38.39313 -118.61665 19281 ft 235 kts 74°
2026-04-18 11:59 38.39527 -118.59570 19284 ft 237 kts 75°
2026-04-18 12:00 38.39737 -118.57490 19284 ft 237 kts 75°
2026-04-18 12:00 38.39944 -118.55434 19281 ft 237 kts 75°
2026-04-18 12:00 38.40155 -118.53349 19282 ft 238 kts 75°
2026-04-18 12:00 38.40366 -118.51257 19279 ft 238 kts 75°
2026-04-18 12:01 38.40786 -118.47067 19274 ft 238 kts 75°
2026-04-18 12:01 38.40998 -118.44968 19269 ft 239 kts 75°
2026-04-18 12:01 38.41208 -118.42868 19266 ft 239 kts 75°
2026-04-18 12:02 38.41416 -118.40771 19260 ft 238 kts 75°
2026-04-18 12:02 38.41624 -118.38677 19257 ft 238 kts 75°
2026-04-18 12:02 38.41834 -118.36585 19268 ft 238 kts 75°
2026-04-18 12:02 38.42044 -118.34481 19249 ft 239 kts 75°
2026-04-18 12:03 38.42252 -118.32375 19244 ft 239 kts 75°
2026-04-18 12:03 38.42460 -118.30273 19240 ft 239 kts 75°
2026-04-18 12:03 38.42667 -118.28170 19234 ft 239 kts 75°
2026-04-18 12:03 38.42874 -118.26071 19229 ft 239 kts 75°
2026-04-18 12:04 38.43080 -118.23974 19224 ft 238 kts 75°
2026-04-18 12:04 38.43286 -118.21878 19218 ft 238 kts 75°
2026-04-18 12:04 38.43423 -118.20491 19215 ft 238 kts 75°
2026-04-18 12:04 38.43626 -118.18399 19222 ft 237 kts 75°
2026-04-18 12:05 38.43831 -118.16309 19221 ft 238 kts 75°
2026-04-18 12:05 38.44038 -118.14217 19218 ft 238 kts 75°
2026-04-18 12:05 38.44240 -118.12119 19218 ft 238 kts 75°
2026-04-18 12:05 38.44443 -118.10021 19209 ft 238 kts 75°
2026-04-18 12:06 38.44647 -118.07923 19210 ft 238 kts 75°
2026-04-18 12:06 38.44852 -118.05824 19222 ft 239 kts 75°
2026-04-18 12:06 38.45054 -118.03725 19222 ft 239 kts 75°
2026-04-18 12:06 38.45256 -118.01625 19221 ft 238 kts 75°
2026-04-18 12:07 38.45457 -117.99526 19220 ft 238 kts 75°
2026-04-18 12:07 38.45660 -117.97430 19228 ft 238 kts 75°
2026-04-18 12:07 38.45862 -117.95327 19228 ft 239 kts 75°
2026-04-18 12:07 38.46063 -117.93218 19229 ft 240 kts 75°
2026-04-18 12:08 38.46264 -117.91108 19228 ft 239 kts 75°
2026-04-18 12:08 38.46465 -117.89000 19226 ft 239 kts 75°
2026-04-18 12:08 38.46666 -117.86892 19226 ft 239 kts 75°
2026-04-18 12:08 38.46866 -117.84789 19226 ft 239 kts 75°
2026-04-18 12:09 38.47066 -117.82683 19228 ft 239 kts 75°
2026-04-18 12:09 38.47264 -117.80582 19230 ft 239 kts 75°
2026-04-18 12:09 38.47463 -117.78481 19230 ft 239 kts 75°
2026-04-18 12:09 38.47661 -117.76382 19230 ft 238 kts 75°
2026-04-18 12:10 38.47858 -117.74281 19231 ft 239 kts 75°
2026-04-18 12:10 38.48056 -117.72177 19228 ft 239 kts 75°
2026-04-18 12:10 38.48253 -117.70069 19236 ft 239 kts 75°
2026-04-18 12:10 38.48447 -117.67994 19236 ft 239 kts 75°
2026-04-18 12:11 38.48644 -117.65887 19240 ft 239 kts 75°
2026-04-18 12:11 38.48841 -117.63779 19233 ft 239 kts 75°
2026-04-18 12:11 38.49036 -117.61670 19235 ft 239 kts 75°
2026-04-18 12:11 38.49232 -117.59560 19234 ft 239 kts 75°
2026-04-18 12:12 38.49426 -117.57452 19240 ft 239 kts 75°
2026-04-18 12:12 38.49622 -117.55345 19237 ft 239 kts 75°
2026-04-18 12:12 38.49816 -117.53239 19237 ft 239 kts 75°
2026-04-18 12:12 38.50010 -117.51133 19237 ft 239 kts 75°
2026-04-18 12:13 38.50204 -117.49025 19237 ft 239 kts 75°
2026-04-18 12:13 38.50396 -117.46919 19260 ft 239 kts 75°
2026-04-18 12:13 38.50590 -117.44805 19248 ft 240 kts 75°
2026-04-18 12:13 38.50784 -117.42690 19248 ft 240 kts 75°
2026-04-18 12:14 38.50976 -117.40576 19248 ft 240 kts 75°
2026-04-18 12:14 38.51167 -117.38463 19247 ft 239 kts 75°
2026-04-18 12:14 38.51359 -117.36354 19247 ft 239 kts 75°
2026-04-18 12:14 38.51550 -117.34244 19255 ft 239 kts 75°
2026-04-18 12:15 38.51740 -117.32136 19255 ft 239 kts 75°
2026-04-18 12:15 38.51931 -117.30029 19252 ft 239 kts 75°
2026-04-18 12:15 38.52046 -117.27904 19252 ft 243 kts 84°
2026-04-18 12:15 38.51972 -117.25740 19253 ft 244 kts 85°
2026-04-18 12:16 38.51903 -117.23578 19253 ft 244 kts 84°
2026-04-18 12:16 38.51844 -117.21412 19258 ft 245 kts 84°
2026-04-18 12:16 38.51782 -117.19240 19259 ft 245 kts 85°
2026-04-18 12:16 38.51719 -117.17062 19281 ft 246 kts 84°
2026-04-18 12:17 38.51655 -117.14873 19260 ft 247 kts 84°
2026-04-18 12:17 38.51590 -117.12680 19260 ft 247 kts 84°
2026-04-18 12:17 38.51525 -117.10485 19268 ft 247 kts 84°
2026-04-18 12:17 38.51459 -117.08287 19269 ft 247 kts 84°
2026-04-18 12:18 38.51393 -117.06094 19270 ft 248 kts 84°
2026-04-18 12:18 38.51327 -117.03892 19266 ft 248 kts 84°
2026-04-18 12:18 38.51259 -117.01697 19248 ft 247 kts 84°
2026-04-18 12:18 38.51194 -116.99532 19249 ft 247 kts 85°
2026-04-18 12:19 38.51126 -116.97349 19258 ft 245 kts 84°
2026-04-18 12:19 38.51059 -116.95173 19257 ft 245 kts 84°
2026-04-18 12:19 38.50991 -116.93000 19257 ft 245 kts 84°
2026-04-18 12:19 38.50924 -116.90826 19258 ft 245 kts 84°
2026-04-18 12:20 38.50855 -116.88648 19259 ft 245 kts 85°
2026-04-18 12:20 38.50785 -116.86482 19280 ft 244 kts 84°
2026-04-18 12:20 38.50717 -116.84307 19269 ft 245 kts 84°
2026-04-18 12:20 38.50648 -116.82129 19271 ft 245 kts 84°
2026-04-18 12:21 38.50577 -116.79953 19274 ft 246 kts 84°
2026-04-18 12:21 38.50506 -116.77774 19277 ft 246 kts 84°
2026-04-18 12:21 38.50430 -116.75589 19268 ft 246 kts 84°
2026-04-18 12:21 38.50362 -116.73416 19276 ft 245 kts 83°
2026-04-18 12:22 38.50295 -116.71259 19260 ft 240 kts 84°
2026-04-18 12:22 38.50221 -116.69139 19262 ft 239 kts 84°
2026-04-18 12:22 38.50148 -116.67024 19259 ft 237 kts 84°
2026-04-18 12:22 38.50080 -116.64925 19259 ft 236 kts 84°
2026-04-18 12:23 38.50013 -116.62829 19257 ft 237 kts 84°
2026-04-18 12:23 38.49942 -116.60722 19252 ft 238 kts 84°
2026-04-18 12:23 38.49868 -116.58603 19254 ft 240 kts 84°
2026-04-18 12:23 38.49794 -116.56476 19277 ft 240 kts 84°
2026-04-18 12:24 38.49722 -116.54333 19273 ft 242 kts 84°
2026-04-18 12:24 38.49646 -116.52181 19267 ft 242 kts 84°
2026-04-18 12:24 38.49569 -116.50042 19271 ft 242 kts 84°
2026-04-18 12:24 38.49496 -116.47898 19270 ft 242 kts 84°
2026-04-18 12:25 38.49421 -116.45748 19270 ft 243 kts 84°
2026-04-18 12:25 38.49345 -116.43591 19263 ft 244 kts 84°
2026-04-18 12:25 38.49266 -116.41439 19258 ft 242 kts 84°
2026-04-18 12:25 38.49192 -116.39296 19256 ft 241 kts 83°
2026-04-18 12:26 38.49117 -116.37153 19258 ft 242 kts 84°
2026-04-18 12:26 38.49036 -116.35009 19258 ft 242 kts 84°
2026-04-18 12:26 38.48957 -116.32890 19255 ft 237 kts 84°
2026-04-18 12:26 38.48881 -116.30811 19249 ft 233 kts 83°
2026-04-18 12:27 38.48807 -116.28761 19247 ft 230 kts 83°
2026-04-18 12:27 38.48734 -116.26732 19237 ft 228 kts 84°
2026-04-18 12:27 38.48659 -116.24722 19265 ft 227 kts 83°
2026-04-18 12:27 38.48586 -116.22713 19264 ft 227 kts 83°
2026-04-18 12:28 38.48511 -116.20703 19262 ft 226 kts 83°
2026-04-18 12:28 38.48437 -116.18725 19260 ft 226 kts 83°
2026-04-18 12:28 38.48361 -116.16722 19260 ft 226 kts 83°
2026-04-18 12:28 38.48285 -116.14720 19260 ft 225 kts 83°
2026-04-18 12:29 38.48209 -116.12727 19262 ft 225 kts 83°
2026-04-18 12:29 38.48134 -116.10736 19257 ft 225 kts 83°
2026-04-18 12:29 38.48057 -116.08746 19257 ft 225 kts 83°
2026-04-18 12:29 38.47981 -116.06752 19256 ft 225 kts 83°
2026-04-18 12:30 38.47904 -116.04763 19256 ft 224 kts 83°
2026-04-18 12:30 38.47826 -116.02776 19256 ft 224 kts 83°
2026-04-18 12:30 38.47749 -116.00789 19258 ft 224 kts 83°
2026-04-18 12:30 38.47671 -115.98803 19260 ft 224 kts 83°
2026-04-18 12:31 38.47593 -115.96815 19256 ft 224 kts 83°
2026-04-18 12:31 38.47512 -115.94836 19276 ft 223 kts 82°
2026-04-18 12:31 38.47436 -115.92859 19268 ft 223 kts 82°
2026-04-18 12:31 38.47358 -115.90878 19269 ft 223 kts 82°
2026-04-18 12:32 38.47279 -115.88896 19268 ft 223 kts 82°
2026-04-18 12:32 38.47198 -115.86919 19265 ft 223 kts 82°
2026-04-18 12:32 38.47118 -115.84949 19267 ft 222 kts 82°
2026-04-18 12:32 38.47038 -115.82978 19266 ft 223 kts 82°
2026-04-18 12:33 38.46959 -115.81006 19261 ft 223 kts 82°
2026-04-18 12:33 38.46878 -115.79029 19265 ft 223 kts 82°
2026-04-18 12:33 38.46797 -115.77051 19264 ft 224 kts 82°
2026-04-18 12:33 38.46715 -115.75067 19260 ft 224 kts 82°
2026-04-18 12:34 38.46633 -115.73083 19260 ft 224 kts 82°
2026-04-18 12:34 38.46550 -115.71099 19263 ft 224 kts 82°
2026-04-18 12:34 38.46467 -115.69114 19264 ft 224 kts 82°
2026-04-18 12:34 38.46384 -115.67128 19264 ft 224 kts 82°
2026-04-18 12:35 38.46301 -115.65142 19264 ft 224 kts 83°
2026-04-18 12:35 38.46217 -115.63154 19262 ft 225 kts 82°
2026-04-18 12:35 38.46132 -115.61160 19259 ft 225 kts 82°
2026-04-18 12:35 38.46047 -115.59168 19260 ft 224 kts 82°
2026-04-18 12:36 38.45963 -115.57207 19260 ft 224 kts 82°
2026-04-18 12:36 38.45878 -115.55220 19261 ft 224 kts 82°
2026-04-18 12:36 38.45793 -115.53230 19261 ft 225 kts 82°
2026-04-18 12:36 38.45707 -115.51238 19255 ft 225 kts 82°
2026-04-18 12:37 38.45620 -115.49248 19239 ft 225 kts 82°
2026-04-18 12:37 38.45532 -115.47253 19239 ft 225 kts 83°
2026-04-18 12:37 38.45444 -115.45268 19248 ft 224 kts 83°
2026-04-18 12:37 38.45360 -115.43278 19241 ft 224 kts 82°
2026-04-18 12:38 38.45274 -115.41309 19241 ft 220 kts 82°
2026-04-18 12:38 38.45188 -115.39348 19248 ft 222 kts 83°
2026-04-18 12:38 38.45096 -115.37372 19247 ft 224 kts 83°
2026-04-18 12:38 38.45006 -115.35382 19251 ft 226 kts 83°
2026-04-18 12:39 38.44919 -115.33387 19247 ft 225 kts 83°
2026-04-18 12:39 38.44828 -115.31394 19253 ft 225 kts 82°
2026-04-18 12:39 38.44739 -115.29408 19257 ft 224 kts 82°
2026-04-18 12:39 38.44651 -115.27427 19252 ft 224 kts 82°
2026-04-18 12:40 38.44560 -115.25447 19246 ft 224 kts 82°
2026-04-18 12:40 38.44469 -115.23469 19246 ft 223 kts 82°
2026-04-18 12:40 38.44379 -115.21492 19251 ft 223 kts 82°
2026-04-18 12:40 38.44289 -115.19515 19247 ft 223 kts 82°
2026-04-18 12:41 38.44197 -115.17538 19247 ft 223 kts 82°
2026-04-18 12:41 38.44105 -115.15561 19255 ft 223 kts 82°
2026-04-18 12:41 38.44013 -115.13581 19247 ft 223 kts 82°
2026-04-18 12:41 38.43921 -115.11603 19247 ft 223 kts 82°
2026-04-18 12:42 38.43828 -115.09624 19247 ft 224 kts 82°
2026-04-18 12:42 38.43735 -115.07645 19247 ft 224 kts 82°
2026-04-18 12:42 38.43642 -115.05663 19247 ft 224 kts 82°
2026-04-18 12:42 38.43548 -115.03683 19247 ft 224 kts 82°
2026-04-18 12:43 38.43454 -115.01704 19249 ft 224 kts 82°
2026-04-18 12:43 38.43361 -114.99709 19251 ft 226 kts 82°
2026-04-18 12:43 38.43264 -114.97694 19251 ft 229 kts 82°
2026-04-18 12:43 38.43167 -114.95661 19242 ft 230 kts 82°
2026-04-18 12:44 38.43068 -114.93638 19245 ft 228 kts 82°
2026-04-18 12:44 38.42969 -114.91629 19242 ft 226 kts 82°
2026-04-18 12:44 38.42873 -114.89631 19240 ft 226 kts 82°
2026-04-18 12:44 38.42775 -114.87634 19236 ft 225 kts 82°
2026-04-18 12:45 38.42678 -114.85641 19235 ft 225 kts 82°
2026-04-18 12:45 38.42581 -114.83651 19235 ft 225 kts 82°
2026-04-18 12:45 38.42483 -114.81663 19234 ft 225 kts 82°
2026-04-18 12:45 38.42386 -114.79675 19236 ft 225 kts 82°
2026-04-18 12:46 38.42288 -114.77708 19237 ft 224 kts 82°
2026-04-18 12:46 38.42189 -114.75729 19238 ft 223 kts 82°
2026-04-18 12:46 38.42090 -114.73755 19225 ft 223 kts 83°
2026-04-18 12:46 38.41992 -114.71784 19237 ft 223 kts 82°
2026-04-18 12:47 38.41894 -114.69798 19237 ft 225 kts 83°
2026-04-18 12:47 38.41794 -114.67800 19233 ft 226 kts 83°
2026-04-18 12:47 38.41692 -114.65807 19239 ft 224 kts 83°
2026-04-18 12:47 38.41589 -114.63820 19239 ft 224 kts 82°
2026-04-18 12:48 38.41489 -114.61833 19240 ft 225 kts 83°
2026-04-18 12:48 38.41388 -114.59842 19241 ft 225 kts 83°
2026-04-18 12:48 38.41285 -114.57847 19239 ft 226 kts 83°
2026-04-18 12:48 38.41183 -114.55850 19238 ft 226 kts 83°
2026-04-18 12:49 38.41079 -114.53849 19240 ft 226 kts 83°
2026-04-18 12:49 38.40976 -114.51849 19240 ft 226 kts 83°
2026-04-18 12:49 38.40872 -114.49846 19244 ft 227 kts 83°
2026-04-18 12:49 38.40768 -114.47842 19245 ft 227 kts 83°
2026-04-18 12:50 38.40662 -114.45834 19245 ft 227 kts 83°
2026-04-18 12:50 38.40557 -114.43824 19246 ft 227 kts 83°
2026-04-18 12:50 38.40451 -114.41809 19247 ft 228 kts 83°
2026-04-18 12:50 38.40344 -114.39793 19248 ft 228 kts 83°
2026-04-18 12:51 38.40238 -114.37775 19266 ft 229 kts 82°
2026-04-18 12:51 38.40131 -114.35743 19254 ft 230 kts 82°
2026-04-18 12:51 38.40015 -114.33715 19257 ft 230 kts 85°
2026-04-18 12:51 38.39625 -114.31694 19257 ft 238 kts 99°
2026-04-18 12:52 38.39139 -114.29671 19258 ft 238 kts 98°
2026-04-18 12:52 38.38672 -114.27647 19262 ft 239 kts 98°
2026-04-18 12:52 38.38202 -114.25619 19251 ft 238 kts 98°
2026-04-18 12:52 38.37886 -114.24287 19249 ft 237 kts 98°
2026-04-18 12:53 38.37412 -114.22276 19248 ft 237 kts 98°
2026-04-18 12:53 38.36942 -114.20265 19247 ft 237 kts 98°
2026-04-18 12:53 38.36472 -114.18258 19248 ft 236 kts 98°
2026-04-18 12:53 38.36002 -114.16253 19249 ft 236 kts 98°
2026-04-18 12:54 38.35530 -114.14249 19248 ft 236 kts 98°
2026-04-18 12:54 38.35058 -114.12244 19233 ft 236 kts 98°
2026-04-18 12:54 38.34587 -114.10240 19233 ft 236 kts 98°
2026-04-18 12:54 38.34114 -114.08237 19235 ft 235 kts 99°
2026-04-18 12:55 38.33642 -114.06237 19256 ft 237 kts 99°
2026-04-18 12:55 38.33167 -114.04219 19246 ft 238 kts 99°
2026-04-18 12:55 38.32690 -114.02202 19247 ft 238 kts 99°
2026-04-18 12:55 38.32213 -114.00183 19235 ft 238 kts 99°
2026-04-18 12:56 38.31733 -113.98158 19236 ft 239 kts 99°
2026-04-18 12:56 38.31253 -113.96133 19237 ft 239 kts 99°
2026-04-18 12:56 38.30771 -113.94102 19236 ft 240 kts 99°
2026-04-18 12:56 38.30289 -113.92065 19236 ft 241 kts 99°
2026-04-18 12:57 38.29803 -113.90024 19236 ft 240 kts 99°
2026-04-18 12:57 38.29319 -113.87986 19232 ft 241 kts 99°
2026-04-18 12:57 38.28833 -113.85963 19213 ft 237 kts 99°
2026-04-18 12:57 38.28359 -113.83950 19210 ft 238 kts 99°
2026-04-18 12:58 38.27881 -113.81935 19208 ft 238 kts 99°
2026-04-18 12:58 38.27399 -113.79925 19212 ft 237 kts 99°
2026-04-18 12:58 38.26924 -113.77942 19213 ft 238 kts 99°
2026-04-18 12:58 38.26444 -113.75930 19210 ft 238 kts 99°
2026-04-18 12:59 38.25962 -113.73913 19216 ft 239 kts 99°
2026-04-18 12:59 38.25479 -113.71893 19210 ft 239 kts 99°
2026-04-18 12:59 38.24994 -113.69868 19210 ft 239 kts 99°
2026-04-18 12:59 38.24509 -113.67845 19210 ft 239 kts 99°
2026-04-18 13:00 38.24022 -113.65819 19210 ft 240 kts 99°
2026-04-18 13:00 38.23535 -113.63792 19214 ft 240 kts 99°
2026-04-18 13:00 38.23047 -113.61760 19217 ft 240 kts 99°
2026-04-18 13:00 38.22559 -113.59732 19222 ft 240 kts 99°
2026-04-18 13:01 38.22069 -113.57699 19210 ft 240 kts 100°
2026-04-18 13:01 38.21580 -113.55670 19205 ft 241 kts 99°
2026-04-18 13:01 38.21091 -113.53637 19201 ft 241 kts 99°
2026-04-18 13:01 38.20602 -113.51610 19198 ft 240 kts 99°
2026-04-18 13:02 38.20112 -113.49588 19198 ft 239 kts 99°
2026-04-18 13:02 38.19624 -113.47569 19202 ft 239 kts 99°
2026-04-18 13:02 38.19135 -113.45550 19199 ft 239 kts 99°
2026-04-18 13:02 38.18648 -113.43531 19203 ft 238 kts 99°
2026-04-18 13:03 38.18158 -113.41506 19209 ft 241 kts 100°
2026-04-18 13:03 38.17168 -113.37440 19208 ft 240 kts 100°
2026-04-18 13:03 38.16680 -113.35425 19217 ft 238 kts 99°
2026-04-18 13:04 38.16190 -113.33413 19208 ft 239 kts 99°
2026-04-18 13:04 38.15700 -113.31399 19208 ft 239 kts 100°
2026-04-18 13:04 38.15209 -113.29383 19210 ft 239 kts 99°
2026-04-18 13:04 38.14717 -113.27363 19211 ft 239 kts 100°
2026-04-18 13:05 38.14224 -113.25344 19212 ft 239 kts 100°
2026-04-18 13:05 38.13730 -113.23325 19226 ft 240 kts 100°